Temperature
18 19 18 18 18 17 17 17 17 17 17 17 17 17 17 17 17 17 17 16 16 16 16 16 16 16 16 16 16 16 16 16 16 16 15 15 15 15 15 15 15 15 15
19 18 18 18 17 17 17 17 16 16 16 17 17 17 17 17 17 16 16 16 16 16 16 16 16 16 16 16 16 16 16 15 15 15 15 15 15 15 15 15 15 14 14
18 18 18 17 17 17 17 16 16 16 16 16 16 16 16 16 16 16 16 16 16 16 16 16 16 16 16 16 16 16 15 15 15 14 14 14 14 14 14 14 14 14 14
18 18 17 17 17 17 16 16 16 16 16 16 16 16 16 16 16 16 16 16 16 16 16 16 16 16 16 16 16 15 15 15 14 14 14 14 14 14 14 14 14 14 14
17 17 17 17 17 16 16 16 16 16 16 16 16 16 16 16 16 16 16 16 16 16 16 16 16 15 15 15 15 15 15 14 14 14 14 14 14 14 14 14 14 14 13
16 17 17 16 16 16 16 16 16 16 16 15 15 16 16 15 15 16 16 16 16 15 15 15 15 15 15 15 15 15 15 14 14 14 14 14 14 14 13 13 13 13 13
16 16 16 16 16 15 15 15 15 15 15 15 15 15 15 15 15 15 15 15 15 15 15 15 15 15 15 15 15 15 14 14 14 14 13 14 14 13 13 13 13 13 13
16 16 15 15 15 15 15 15 15 15 15 15 15 15 15 15 15 15 15 15 15 15 15 15 15 15 15 15 15 15 14 14 13 13 13 13 13 13 13 13 13 13 12
15 15 15 15 15 14 15 15 15 15 15 15 15 15 15 15 15 15 15 15 15 15 15 15 15 15 15 15 15 14 14 14 13 13 13 13 13 13 12 12 12 12 12
15 15 15 15 14 14 14 14 14 14 14 14 14 15 15 14 14 14 14 15 15 15 15 14 14 15 15 15 14 14 14 13 13 13 13 13 12 12 12 12 12 12 12
14 14 14 14 14 14 14 14 14 14 14 14 14 14 14 14 14 14 14 14 14 14 14 14 14 14 14 14 14 14 13 13 13 13 13 13 12 12 12 12 12 12 11
14 14 14 14 14 13 13 13 14 14 14 14 14 14 14 14 14 14 14 14 14 14 14 14 14 14 14 14 13 13 13 13 13 13 13 12 12 12 12 12 12 11 11
13 13 13 13 13 13 13 13 13 13 13 13 13 14 13 13 14 14 14 14 14 14 14 14 14 13 13 13 13 13 12 12 12 12 12 12 12 12 12 12 11 11 11
13 13 13 13 13 13 13 13 13 13 13 13 13 13 13 13 13 13 13 13 13 13 13 13 13 13 13 13 13 13 12 12 12 12 12 12 12 12 11 11 11 11 10
12 13 13 13 13 13 13 13 13 13 13 13 13 13 13 13 13 13 13 13 13 13 13 13 13 13 13 13 12 12 12 12 12 12 12 12 12 12 11 11 11 11 10
12 12 12 12 12 12 12 13 12 13 13 13 13 13 13 13 13 13 13 13 13 13 13 13 13 13 13 13 12 12 12 12 12 12 11 11 11 11 11 11 11 11 11
12 12 12 12 12 12 12 12 12 12 12 12 12 12 13 13 13 12 12 12 13 13 13 13 12 12 12 12 12 12 12 12 11 11 11 11 11 11 11 11 11 10 10
11 11 11 11 12 12 12 12 12 12 12 12 12 12 12 12 12 12 12 12 12 12 12 12 12 12 12 12 12 12 12 11 11 11 11 11 11 11 11 11 10 10 10
11 11 11 11 11 11 11 11 12 12 12 12 12 12 12 12 12 12 12 12 12 12 12 12 12 12 12 12 12 12 11 11 11 11 11 11 11 11 10 10 10 10 10
10 10 10 10 11 11 11 11 11 11 11 11 11 11 11 11 12 12 12 12 12 12 11 11 11 11 11 11 11 11 11 11 11 11 11 10 10 10 10 10 10 9 9
10 9 10 10 10 10 10 10 10 11 11 11 11 11 11 11 11 11 12 11 11 11 11 11 11 11 11 11 11 11 10 10 10 10 10 10 10 10 10 9 9 9 9
9 9 9 9 9 10 10 10 10 10 10 10 11 11 11 11 11 11 11 11 11 11 11 11 11 11 11 11 10 10 9 9 10 10 10 9 9 9 9 9 9 9 8
9 9 9 9 9 9 9 9 9 9 10 10 10 10 10 10 10 11 11 11 11 11 10 10 10 10 10 10 10 10 9 9 9 9 9 9 9 9 9 9 8 8 8
8 8 8 8 8 8 8 9 9 9 9 9 10 10 10 10 10 10 10 10 10 10 10 10 10 10 10 10 10 10 9 9 9 8 8 8 8 8 8 8 8 8 7
8 8 8 8 8 8 8 8 8 8 9 9 9 9 9 9 10 10 10 10 10 10 10 10 9 9 9 10 10 9 9 9 9 8 8 8 8 8 8 7 7 7 7
7 7 7 7 7 7 7 8 8 8 8 8 8 8 9 9 9 9 9 9 9 9 9 9 9 9 9 9 9 9 9 9 9 8 7 7 7 7 7 7 7 7 6
Wind_Speed
9 12 15 14 13 12 12 12 11 11 11 11 11 11 11 12 12 12 12 12 12 12 12 12 12 12 12 12 12 12 12 12 12 13 13 14 14 13 13 13 13 12 13
11 15 15 14 13 12 12 12 12 11 11 11 11 11 11 11 12 12 12 12 11 12 12 12 12 12 12 12 12 11 11 10 11 11 13 13 13 13 13 13 13 11 13
13 15 15 14 12 12 12 11 11 11 11 11 11 11 11 11 11 11 11 11 11 11 11 12 12 12 11 11 11 10 9 9 9 9 9 11 13 13 13 13 13 12 12
12 14 14 14 13 12 12 11 11 11 11 11 11 11 11 11 11 11 11 11 11 11 11 11 11 11 11 11 10 9 9 8 8 8 9 11 11 12 12 12 12 12 11
10 13 14 14 13 12 12 12 11 11 11 11 11 11 10 10 10 10 11 11 11 11 11 11 11 11 10 10 9 9 8 7 7 8 10 12 11 11 11 11 11 11 11
9 13 15 14 13 13 12 12 11 11 11 11 11 10 10 10 10 11 11 11 11 10 10 10 11 11 10 10 9 8 7 6 6 9 11 12 10 10 10 10 10 10 10
8 10 14 14 13 13 12 12 11 11 11 11 10 10 10 9 10 10 11 11 10 10 10 10 10 10 10 9 8 7 7 6 7 9 10 11 10 9 9 9 9 9 9
8 9 12 14 13 12 12 12 11 11 11 10 10 10 10 10 10 10 10 10 10 10 9 9 9 9 9 8 7 6 5 5 6 7 10 10 9 9 9 8 9 9 9
7 9 9 11 12 12 11 11 11 10 10 10 10 10 10 10 9 9 10 10 10 10 9 9 9 8 9 8 7 5 5 5 5 6 9 9 8 8 8 8 8 9 9
6 7 7 8 9 10 10 11 11 11 11 11 11 11 11 10 9 9 8 9 9 9 9 9 9 8 8 7 5 3 3 3 5 7 9 8 8 8 8 7 8 8 8
4 5 5 6 7 7 9 11 11 11 12 11 10 11 10 8 8 8 9 8 9 9 9 8 8 7 6 5 4 3 3 4 6 8 8 7 7 7 7 7 7 7 8
4 5 4 5 6 6 7 9 9 9 10 9 9 9 7 8 8 8 8 8 8 8 8 7 7 6 5 4 3 3 2 4 6 7 7 8 7 6 6 6 6 6 7
4 4 4 4 5 6 5 6 6 6 7 8 9 8 7 8 8 7 7 7 7 7 6 6 5 4 4 4 4 4 4 4 6 7 7 7 7 6 5 5 6 6 6
3 4 4 4 4 4 5 5 5 5 5 5 7 8 7 5 5 5 4 6 5 4 4 4 3 4 4 5 5 4 4 4 6 7 7 8 7 6 5 5 5 5 5
3 2 3 4 4 4 4 4 4 4 4 5 6 7 7 4 4 4 4 4 4 4 3 3 3 4 4 4 4 4 3 4 6 7 7 8 7 6 5 5 5 5 5
3 2 2 4 4 3 3 3 3 4 4 5 5 7 8 6 5 4 3 3 3 4 4 4 3 3 3 3 3 3 3 4 5 7 7 7 7 6 5 4 4 4 5
2 2 3 4 4 4 3 3 3 4 5 4 4 6 7 7 6 5 3 3 3 4 4 3 4 3 3 3 2 3 3 3 4 5 6 6 5 5 4 3 3 4 5
3 2 3 2 4 4 3 3 3 5 5 4 5 5 6 6 6 5 3 3 4 4 3 2 2 2 2 2 2 2 2 2 3 4 5 5 5 4 4 3 3 3 4
3 3 3 3 3 4 3 2 2 4 4 4 5 4 4 5 6 5 3 4 5 3 2 2 2 3 3 2 2 2 2 2 2 2 3 4 4 4 3 3 1 2 3
3 3 3 3 3 3 3 2 2 3 4 4 4 4 4 4 5 5 4 5 5 3 2 2 2 2 3 3 2 1 1 1 2 2 2 4 4 3 3 2 1 1 2
4 4 3 4 3 3 3 3 3 3 3 3 3 4 4 4 4 5 4 4 4 3 3 3 2 3 2 2 2 1 1 0 1 1 2 2 3 3 3 2 1 1 1
4 4 4 4 3 3 3 3 2 2 2 2 2 3 4 5 4 5 4 4 4 3 3 4 3 2 2 2 2 2 1 1 1 0 1 1 2 2 2 1 1 1 2
4 4 4 4 3 3 3 3 3 2 2 2 2 2 3 5 4 4 5 4 4 4 4 3 3 3 3 2 2 3 3 2 1 1 1 1 1 1 1 1 1 1 0
3 4 4 4 3 3 3 4 5 3 3 2 3 2 2 3 4 4 5 4 4 4 5 4 3 2 4 3 1 1 2 3 2 0 1 1 1 1 1 0 0 0 0
2 3 4 4 4 3 3 4 4 3 2 1 2 3 2 2 3 4 4 4 3 4 5 5 4 3 2 3 2 1 1 1 1 2 2 1 1 1 1 1 1 0 1
2 2 3 4 4 3 3 3 3 4 3 3 2 3 2 2 2 2 3 3 3 3 4 4 4 4 2 2 2 2 2 2 2 2 2 2 1 1 1 1 1 0 1
Wind_Direction
128 136 142 138 137 135 133 131 127 122 119 116 119 116 112 109 104 101 100 100 101 101 100 98 96 94 91 89 86 84 83 84 85 84 82 80 78 76 71 66 68 65 67
134 138 141 138 138 138 137 134 130 127 123 121 120 121 117 112 109 105 104 103 104 104 103 101 97 95 93 91 89 87 86 87 92 92 87 82 79 76 73 69 68 67 65
130 136 139 138 138 138 136 134 134 132 128 125 124 123 123 118 115 112 109 107 107 107 106 103 101 98 94 93 92 90 88 88 89 86 86 86 79 75 73 70 69 66 64
130 136 142 139 140 139 137 135 138 138 134 132 129 126 125 124 121 117 115 112 108 108 107 104 103 101 97 96 95 92 90 87 79 76 81 80 78 77 73 70 67 64 62
129 135 141 142 142 140 139 137 138 140 138 137 134 130 127 129 127 121 117 115 111 109 109 107 105 103 101 98 96 94 91 84 73 78 81 80 76 77 74 69 64 61 58
129 134 140 144 144 142 141 141 141 141 139 137 134 132 131 128 128 124 120 118 115 112 113 112 109 105 102 98 96 94 85 77 75 79 75 78 75 78 76 71 65 61 57
127 130 142 145 146 144 143 142 141 143 141 138 134 132 131 129 126 129 125 121 118 116 115 112 112 109 106 102 97 94 86 66 86 81 79 79 77 77 74 69 65 60 56
126 127 139 146 146 144 144 143 143 144 143 139 136 133 128 126 126 128 128 124 121 120 118 113 106 112 111 108 101 93 81 64 78 86 87 83 84 80 72 66 61 57 55
122 129 135 143 145 144 144 144 143 141 141 139 134 130 127 125 124 124 130 128 123 120 118 117 111 115 115 112 106 93 77 68 63 77 87 81 85 82 75 69 63 58 55
117 128 142 143 145 149 146 145 141 139 136 133 130 127 125 125 126 124 125 130 126 123 122 119 119 113 118 120 116 101 82 68 71 72 79 84 87 84 76 70 64 58 53
126 132 144 147 145 146 150 144 138 138 136 130 130 130 129 128 125 122 121 128 129 129 131 127 128 127 123 126 130 120 91 90 82 76 78 91 94 87 76 68 63 55 50
156 151 148 154 147 147 151 143 145 146 143 143 141 140 138 126 121 120 123 127 133 135 140 143 147 147 145 134 130 112 91 94 93 85 82 93 94 89 78 67 59 50 44
168 157 146 148 146 148 146 148 147 146 146 146 146 147 134 127 128 127 128 131 140 145 144 149 150 147 127 112 111 106 85 77 88 88 86 95 93 87 79 67 58 48 39
163 161 150 141 144 148 147 148 149 148 147 148 151 149 139 137 137 141 145 151 151 149 145 151 145 129 121 115 113 108 97 91 96 97 93 100 95 86 76 68 60 48 39
163 145 154 138 135 145 145 149 147 148 150 147 147 148 145 144 152 147 146 150 148 146 154 147 133 125 114 105 107 107 105 102 105 109 106 105 100 87 74 64 57 49 40
165 146 140 142 136 139 148 151 148 144 136 135 143 153 151 148 149 150 151 148 139 144 140 134 133 126 117 109 114 112 108 104 108 113 124 118 107 98 81 67 54 42 33
171 158 135 154 141 137 150 156 147 140 134 135 143 151 149 149 151 150 152 153 146 143 132 124 125 120 130 129 137 125 110 103 107 115 125 130 128 117 101 79 56 40 28
157 142 130 149 143 136 155 155 153 140 136 137 138 141 141 146 151 146 154 155 143 136 131 139 151 144 144 143 141 143 126 111 105 119 119 120 121 125 124 101 63 38 24
154 143 130 131 142 143 135 132 139 136 134 138 134 135 143 146 148 145 152 150 140 134 146 161 155 155 146 136 136 136 140 135 129 130 127 126 125 124 131 135 96 41 16
145 137 135 125 139 141 123 116 135 125 127 130 134 143 149 149 151 142 148 150 143 146 163 157 155 144 140 144 130 112 140 148 139 154 149 137 139 142 130 134 121 87 2
145 143 146 139 144 145 145 151 164 157 148 142 139 149 153 151 150 151 147 147 148 159 169 162 144 139 131 126 105 96 4 79 144 141 131 137 137 143 144 135 104 75 3
164 166 152 147 154 161 168 162 166 162 156 155 136 142 157 160 161 161 150 152 149 148 162 164 148 154 159 153 142 137 128 329 329 235 138 143 145 141 142 148 126 82 47
176 171 159 155 153 152 151 132 124 115 124 135 153 173 166 164 161 157 154 152 152 154 163 169 164 164 173 198 156 146 153 200 246 291 234 163 152 153 147 140 132 126 87
178 161 157 154 148 149 154 149 149 159 167 194 182 179 170 161 159 159 157 154 161 159 161 170 170 167 167 180 194 151 152 153 143 222 292 266 201 197 193 154 97 250 214
151 157 161 155 154 155 156 157 160 163 158 155 163 168 167 158 159 160 158 160 169 165 162 165 163 165 181 177 176 167 144 123 127 160 231 265 291 262 225 203 153 94 62
133 143 154 152 157 162 158 166 166 160 156 158 167 165 171 172 173 166 157 161 174 170 166 167 163 165 176 182 174 162 153 160 178 163 200 224 251 271 275 247 178 158 80
Height
1495 1497 1499 1501 1503 1505 1507 1509 1511 1512 1514 1516 1518 1519 1520 1522 1523 1524 1525 1526 1527 1528 1528 1529 1530 1531 1531 1532 1532 1532 1533 1533 1534 1534 1534 1534 1534 1535 1535 1535 1535 1535 1535
1494 1496 1498 1500 1502 1504 1507 1509 1511 1512 1514 1516 1518 1519 1521 1522 1523 1524 1525 1526 1527 1528 1529 1530 1530 1531 1532 1532 1533 1533 1534 1534 1534 1535 1535 1535 1535 1535 1535 1535 1536 1536 1535
1493 1495 1498 1500 1502 1504 1506 1508 1510 1512 1514 1516 1517 1519 1521 1522 1523 1525 1525 1526 1527 1528 1529 1530 1531 1531 1532 1533 1533 1534 1534 1535 1535 1535 1536 1536 1536 1536 1536 1536 1536 1536 1536
1493 1494 1497 1499 1502 1504 1506 1508 1510 1512 1514 1516 1517 1519 1521 1522 1523 1525 1525 1526 1527 1528 1529 1530 1531 1532 1532 1533 1534 1534 1535 1535 1536 1536 1536 1536 1536 1537 1537 1536 1536 1536 1536
1493 1494 1497 1499 1501 1503 1505 1507 1510 1512 1514 1515 1517 1519 1520 1522 1523 1524 1525 1526 1527 1528 1529 1530 1531 1532 1533 1533 1534 1534 1535 1535 1536 1536 1536 1536 1536 1537 1537 1537 1537 1536 1536
1493 1494 1496 1498 1501 1503 1505 1507 1509 1511 1513 1515 1517 1518 1520 1521 1523 1524 1525 1526 1527 1528 1529 1530 1531 1532 1533 1533 1534 1535 1535 1536 1536 1536 1537 1536 1536 1537 1537 1536 1536 1536 1536
1492 1494 1496 1498 1500 1502 1504 1506 1508 1511 1512 1514 1516 1518 1519 1521 1522 1523 1525 1526 1527 1528 1529 1530 1531 1531 1532 1533 1534 1534 1535 1536 1536 1536 1536 1536 1537 1537 1537 1536 1536 1536 1536
1491 1493 1495 1498 1499 1502 1504 1506 1508 1510 1512 1513 1515 1517 1518 1520 1521 1523 1524 1525 1526 1527 1528 1529 1530 1531 1532 1533 1534 1534 1535 1535 1536 1536 1536 1536 1536 1536 1536 1536 1536 1536 1535
1491 1492 1494 1496 1499 1501 1503 1505 1507 1509 1511 1512 1514 1516 1517 1519 1520 1522 1523 1525 1526 1527 1528 1529 1530 1530 1531 1532 1533 1534 1535 1535 1535 1536 1536 1536 1536 1536 1536 1536 1536 1535 1535
1490 1491 1493 1495 1497 1499 1501 1504 1506 1507 1509 1511 1513 1515 1516 1518 1519 1521 1522 1524 1525 1526 1527 1529 1530 1530 1531 1532 1533 1534 1534 1535 1535 1535 1535 1535 1536 1536 1536 1535 1535 1535 1534
1489 1490 1492 1493 1495 1497 1499 1501 1504 1506 1507 1509 1511 1513 1515 1516 1518 1519 1521 1523 1524 1525 1527 1528 1528 1529 1530 1531 1532 1533 1534 1534 1534 1535 1535 1535 1535 1535 1535 1535 1535 1534 1534
1488 1489 1491 1492 1493 1495 1497 1499 1501 1503 1505 1507 1509 1511 1513 1515 1516 1518 1520 1521 1523 1524 1525 1526 1527 1528 1529 1530 1531 1532 1532 1533 1534 1534 1534 1534 1534 1534 1534 1534 1534 1533 1533
1486 1487 1489 1490 1491 1493 1494 1496 1499 1501 1503 1505 1507 1509 1511 1513 1514 1516 1518 1519 1521 1522 1524 1525 1526 1527 1528 1528 1529 1530 1531 1532 1533 1533 1533 1533 1533 1533 1533 1533 1533 1532 1532
1485 1485 1487 1488 1489 1491 1492 1494 1497 1499 1501 1503 1505 1507 1509 1511 1512 1514 1516 1517 1519 1520 1522 1523 1524 1525 1526 1527 1528 1529 1530 1531 1531 1532 1532 1532 1532 1532 1532 1532 1532 1531 1531
1483 1484 1485 1486 1487 1489 1490 1492 1495 1497 1499 1501 1503 1505 1507 1509 1510 1512 1514 1516 1517 1518 1520 1521 1523 1524 1525 1526 1527 1528 1529 1529 1530 1530 1531 1531 1531 1531 1531 1531 1530 1530 1529
1480 1482 1483 1484 1486 1487 1488 1490 1492 1494 1497 1499 1501 1503 1505 1506 1508 1510 1512 1513 1515 1516 1518 1519 1521 1522 1523 1524 1525 1526 1527 1528 1528 1529 1529 1530 1530 1530 1530 1529 1529 1529 1528
1478 1480 1481 1482 1484 1485 1486 1488 1490 1492 1494 1497 1499 1501 1503 1504 1506 1508 1509 1511 1513 1514 1516 1517 1519 1520 1521 1522 1523 1524 1525 1526 1527 1527 1528 1528 1528 1528 1528 1528 1528 1527 1527
1475 1477 1478 1479 1481 1483 1484 1485 1488 1490 1492 1495 1497 1499 1500 1502 1504 1505 1507 1509 1511 1512 1513 1515 1517 1518 1519 1520 1521 1522 1523 1524 1525 1525 1526 1526 1526 1526 1526 1526 1526 1526 1525
1473 1474 1475 1477 1478 1480 1482 1483 1485 1487 1490 1492 1494 1496 1498 1500 1501 1503 1504 1506 1508 1510 1511 1513 1514 1516 1517 1518 1519 1520 1521 1522 1523 1523 1524 1524 1524 1525 1524 1524 1524 1524 1523
1470 1472 1473 1474 1476 1478 1479 1481 1483 1485 1487 1490 1492 1494 1496 1497 1499 1500 1502 1503 1505 1507 1509 1511 1512 1514 1515 1516 1517 1518 1519 1520 1521 1521 1521 1522 1522 1523 1523 1522 1522 1522 1521
1468 1469 1471 1472 1474 1475 1477 1479 1479 1481 1484 1486 1489 1491 1493 1495 1496 1498 1499 1501 1502 1505 1507 1508 1510 1511 1512 1513 1515 1516 1517 1518 1518 1519 1519 1520 1520 1520 1521 1520 1520 1520 1519
1465 1467 1468 1469 1471 1473 1475 1476 1478 1479 1481 1484 1487 1489 1491 1492 1493 1495 1496 1498 1500 1501 1504 1505 1507 1508 1509 1511 1512 1513 1514 1516 1516 1517 1517 1518 1518 1518 1518 1518 1518 1517 1517
1463 1464 1466 1467 1469 1471 1472 1473 1476 1477 1479 1482 1484 1486 1488 1489 1491 1492 1493 1495 1497 1499 1501 1502 1503 1505 1507 1509 1510 1511 1512 1512 1513 1515 1515 1515 1516 1516 1516 1516 1516 1515 1515
1461 1462 1463 1465 1466 1468 1470 1471 1472 1473 1475 1478 1480 1483 1485 1486 1488 1489 1491 1492 1494 1496 1498 1499 1501 1503 1504 1506 1507 1509 1510 1510 1510 1511 1513 1513 1514 1514 1514 1514 1513 1513 1512
1458 1460 1461 1463 1464 1465 1467 1468 1470 1471 1473 1476 1478 1480 1481 1483 1485 1486 1488 1489 1491 1493 1495 1496 1498 1500 1501 1503 1504 1505 1506 1507 1508 1508 1509 1510 1511 1511 1512 1511 1511 1510 1510
1457 1458 1459 1460 1461 1463 1464 1466 1467 1468 1470 1473 1474 1476 1478 1480 1481 1483 1485 1486 1488 1490 1491 1494 1495 1497 1498 1500 1502 1502 1503 1504 1504 1505 1506 1507 1507 1508 1509 1509 1508 1508 1507